| time (UTC) | temp C | wind direction | speed KPH | gust KPH | rain 1hr cm | rain 24hr cm | rain mn cm | humidity % | barometer mb |
| 20260507152322 | 10 | 22 | 0.0 | 4.8 | 0.00 | 0.00 | 0.00 | 8 | 1012.7 |
| 20260507151322 | 10 | 344 | 1.6 | 4.8 | 0.00 | 0.00 | 0.00 | 8 | 1012.7 |
| 20260507150152 | 11 | 22 | 1.6 | 4.8 | 0.00 | 0.00 | 0.00 | 6 | 1012.7 |
| 20260507145152 | 11 | 18 | 1.6 | 6.4 | 0.00 | 0.00 | 0.00 | 6 | 1012.7 |
| 20260507144152 | 11 | 22 | 1.6 | 4.8 | 0.00 | 0.00 | 0.00 | 6 | 1012.7 |
| 20260507143001 | 11 | 10 | 3.2 | 9.7 | 0.00 | 0.00 | 0.00 | 6 | 1012.7 |
| 20260507142001 | 12 | 22 | 0.0 | 4.8 | 0.00 | 0.00 | 0.00 | 6 | 1011.6 |
| 20260507141001 | 12 | 31 | 1.6 | 4.8 | 0.00 | 0.00 | 0.00 | 6 | 1011.6 |
| 20260507140001 | 14 | 17 | 3.2 | 9.7 | 0.00 | 0.00 | 0.00 | 5 | 1012.7 |
| 20260507134827 | 15 | 358 | 4.8 | 9.7 | 0.00 | 0.00 | 0.00 | 5 | 1012.7 |
| 20260507133827 | 13 | 333 | 1.6 | 6.4 | 0.00 | 0.00 | 0.00 | 6 | 1012.7 |
| 20260507132827 | 14 | 353 | 3.2 | 8.0 | 0.00 | 0.00 | 0.00 | 5 | 1012.7 |
| 20260507131827 | 13 | 322 | 4.8 | 9.7 | 0.00 | 0.00 | 0.00 | 6 | 1012.7 |
| 20260507130827 | 13 | 317 | 3.2 | 8.0 | 0.00 | 0.00 | 0.00 | 5 | 1012.7 |
| 20260507125827 | 13 | 356 | 3.2 | 9.7 | 0.00 | 0.00 | 0.00 | 5 | 1011.6 |
| 20260507124827 | 14 | 311 | 6.4 | 8.0 | 0.00 | 0.00 | 0.00 | 5 | 1011.6 |
| 20260507123827 | 13 | 302 | 3.2 | 6.4 | 0.00 | 0.00 | 0.00 | 5 | 1011.6 |
| 20260507122827 | 14 | 315 | 3.2 | 9.7 | 0.00 | 0.00 | 0.00 | 5 | 1011.6 |
| 20260507121827 | 15 | 308 | 4.8 | 11.3 | 0.00 | 0.00 | 0.00 | 5 | 1011.6 |
| 20260507120657 | 15 | 270 | 4.8 | 11.3 | 0.00 | 0.00 | 0.00 | 5 | 1011.6 |
| 20260507115657 | 15 | 324 | 3.2 | 9.7 | 0.00 | 0.00 | 0.00 | 6 | 1011.6 |
| 20260507114657 | 15 | 326 | 4.8 | 11.3 | 0.00 | 0.00 | 0.00 | 6 | 1011.6 |
| 20260507113657 | 15 | 348 | 4.8 | 9.7 | 0.00 | 0.00 | 0.00 | 10 | 1011.6 |
| 20260507112657 | 15 | 319 | 4.8 | 9.7 | 0.00 | 0.00 | 0.00 | 12 | 1011.6 |
| 20260507111657 | 15 | 285 | 6.4 | 9.7 | 0.00 | 0.00 | 0.00 | 14 | 1011.6 |
| 20260507110657 | 14 | 299 | 4.8 | 14.5 | 0.00 | 0.00 | 0.00 | 8 | 1011.6 |
| 20260507105657 | 15 | 328 | 4.8 | 12.9 | 0.00 | 0.00 | 0.00 | 16 | 1011.6 |
| 20260507104657 | 15 | 324 | 4.8 | 9.7 | 0.00 | 0.00 | 0.00 | 22 | 1011.6 |
| 20260507103657 | 15 | 122 | 1.6 | 9.7 | 0.00 | 0.00 | 0.00 | 22 | 1011.6 |
| 20260507102657 | 15 | 292 | 4.8 | 12.9 | 0.00 | 0.00 | 0.00 | 24 | 1011.6 |
| 20260507101657 | 15 | 27 | 4.8 | 9.7 | 0.00 | 0.00 | 0.00 | 25 | 1011.6 |
| 20260507100657 | 15 | 20 | 4.8 | 9.7 | 0.00 | 0.00 | 0.00 | 25 | 1011.6 |
| 20260507095657 | 15 | 295 | 4.8 | 9.7 | 0.00 | 0.00 | 0.00 | 25 | 1011.6 |
| 20260507094657 | 14 | 313 | 4.8 | 11.3 | 0.00 | 0.00 | 0.00 | 25 | 1010.6 |
| 20260507093657 | 14 | 351 | 3.2 | 11.3 | 0.00 | 0.00 | 0.00 | 25 | 1010.6 |
| 20260507092657 | 14 | 341 | 4.8 | 12.9 | 0.00 | 0.00 | 0.00 | 25 | 1010.6 |
| 20260507091657 | 14 | 313 | 6.4 | 9.7 | 0.00 | 0.00 | 0.00 | 26 | 1011.6 |
| 20260507090657 | 14 | 2 | 4.8 | 12.9 | 0.00 | 0.00 | 0.00 | 26 | 1011.6 |
| 20260507085657 | 14 | 324 | 6.4 | 16.1 | 0.00 | 0.00 | 0.00 | 27 | 1011.6 |
| 20260507084527 | 14 | 330 | 6.4 | 11.3 | 0.00 | 0.00 | 0.00 | 27 | 1011.6 |
| 20260507083527 | 14 | 45 | 6.4 | 9.7 | 0.00 | 0.00 | 0.00 | 27 | 1011.6 |
| 20260507082527 | 15 | 335 | 4.8 | 20.9 | 0.00 | 0.00 | 0.00 | 29 | 1011.6 |
| 20260507081227 | 15 | 22 | 6.4 | 9.7 | 0.00 | 0.00 | 0.00 | 28 | 1011.6 |
| 20260507080227 | 15 | 325 | 6.4 | 14.5 | 0.00 | 0.00 | 0.00 | 29 | 1011.6 |
| 20260507075227 | 14 | 290 | 8.0 | 17.7 | 0.00 | 0.00 | 0.00 | 30 | 1011.6 |
| 20260507074227 | 15 | 332 | 6.4 | 12.9 | 0.00 | 0.00 | 0.00 | 32 | 1011.6 |
| 20260507073227 | 15 | 313 | 6.4 | 16.1 | 0.00 | 0.00 | 0.00 | 34 | 1011.6 |
| 20260507072227 | 14 | 295 | 4.8 | 12.9 | 0.00 | 0.00 | 0.00 | 33 | 1011.6 |
| 20260507071227 | 15 | 333 | 4.8 | 9.7 | 0.00 | 0.00 | 0.00 | 35 | 1011.6 |
| 20260507070227 | 14 | 274 | 6.4 | 14.5 | 0.00 | 0.00 | 0.00 | 35 | 1010.6 |
| 20260507064844 | 14 | 354 | 4.8 | 24.1 | 0.00 | 0.00 | 0.00 | 36 | 1010.6 |
| 20260507063844 | 14 | 14 | 6.4 | 9.7 | 0.00 | 0.00 | 0.00 | 36 | 1010.6 |
| 20260507062844 | 13 | 333 | 4.8 | 9.7 | 0.00 | 0.00 | 0.00 | 39 | 1010.6 |
| 20260507061714 | 13 | 338 | 6.4 | 17.7 | 0.00 | 0.00 | 0.00 | 42 | 1009.6 |
| 20260507060714 | 12 | 334 | 4.8 | 14.5 | 0.00 | 0.00 | 0.00 | 44 | 1009.6 |
| 20260507055714 | 13 | 328 | 4.8 | 14.5 | 0.00 | 0.00 | 0.00 | 45 | 1009.6 |
| 20260507054714 | 13 | 304 | 6.4 | 12.9 | 0.00 | 0.00 | 0.00 | 47 | 1009.6 |
| 20260507053714 | 13 | 10 | 6.4 | 9.7 | 0.00 | 0.00 | 0.00 | 48 | 1009.6 |
| 20260507052522 | 12 | 331 | 6.4 | 11.3 | 0.00 | 0.00 | 0.00 | 48 | 1010.6 |
| 20260507051523 | 12 | 295 | 6.4 | 14.5 | 0.00 | 0.00 | 0.00 | 50 | 1009.6 |
| 20260507050201 | 11 | 276 | 4.8 | 12.9 | 0.00 | 0.00 | 0.00 | 51 | 1009.6 |
| 20260507045201 | 13 | 295 | 6.4 | 12.9 | 0.00 | 0.00 | 0.00 | 51 | 1009.6 |
| 20260507044201 | 12 | 323 | 1.6 | 9.7 | 0.00 | 0.00 | 0.00 | 54 | 1009.6 |
| 20260507043201 | 12 | 290 | 3.2 | 9.7 | 0.00 | 0.00 | 0.00 | 58 | 1008.5 |
| 20260507042202 | 12 | 338 | 4.8 | 9.7 | 0.00 | 0.00 | 0.00 | 62 | 1008.5 |
| 20260507041201 | 11 | 284 | 4.8 | 8.0 | 0.00 | 0.00 | 0.00 | 62 | 1008.5 |
| 20260507040201 | 12 | 328 | 4.8 | 9.7 | 0.00 | 0.00 | 0.00 | 65 | 1007.5 |
| 20260507035010 | 10 | 342 | 4.8 | 11.3 | 0.00 | 0.00 | 0.00 | 68 | 1007.5 |
| 20260507034010 | 10 | 351 | 6.4 | 14.5 | 0.00 | 0.00 | 0.00 | 71 | 1007.5 |
| 20260507033011 | 9 | 0 | 4.8 | 9.7 | 0.00 | 0.00 | 0.00 | 70 | 1007.5 |
| 20260507032010 | 10 | 338 | 3.2 | 9.7 | 0.00 | 0.00 | 0.00 | 70 | 1008.5 |
| 20260507031010 | 9 | 307 | 6.4 | 11.3 | 0.00 | 0.00 | 0.00 | 70 | 1008.5 |
| 20260507030010 | 9 | 11 | 4.8 | 9.7 | 0.00 | 0.00 | 0.00 | 71 | 1007.5 |
| 20260507024819 | 8 | 331 | 6.4 | 12.9 | 0.00 | 0.00 | 0.00 | 72 | 1007.5 |
| 20260507023819 | 8 | 349 | 4.8 | 11.3 | 0.00 | 0.00 | 0.00 | 72 | 1007.5 |
| 20260507022819 | 9 | 346 | 6.4 | 11.3 | 0.00 | 0.00 | 0.00 | 81 | 1006.4 |
| 20260507021819 | 11 | 324 | 4.8 | 11.3 | 0.00 | 0.00 | 0.00 | 96 | 1006.4 |
| 20260507020819 | 11 | 288 | 1.6 | 6.4 | 0.00 | 0.00 | 0.00 | 96 | 1006.4 |
| 20260507015819 | 11 | 297 | 4.8 | 6.4 | 0.00 | 0.00 | 0.00 | 97 | 1005.4 |
| 20260507014819 | 11 | 315 | 0.0 | 4.8 | 0.00 | 0.00 | 0.00 | 97 | 1005.4 |
| 20260507013457 | 11 | 284 | 1.6 | 6.4 | 0.00 | 0.00 | 0.00 | 97 | 1005.4 |
| 20260507012457 | 11 | 342 | 1.6 | 4.8 | 0.00 | 0.00 | 0.00 | 97 | 1005.4 |
| 20260507011457 | 10 | 327 | 0.0 | 6.4 | 0.00 | 0.00 | 0.00 | 97 | 1005.4 |
| 20260507010306 | 10 | 338 | 1.6 | 8.0 | 0.00 | 0.00 | 0.00 | 96 | 1005.4 |
| 20260507005306 | 10 | 288 | 1.6 | 4.8 | 0.00 | 0.00 | 0.00 | 94 | 1005.4 |
| 20260507004306 | 10 | 270 | 0.0 | 3.2 | 0.00 | 0.00 | 0.00 | 94 | 1005.4 |
| 20260507003306 | 10 | 292 | 1.6 | 4.8 | 0.00 | 0.00 | 0.00 | 93 | 1005.4 |
| 20260507002115 | 10 | 303 | 0.0 | 6.4 | 0.00 | 0.00 | 0.00 | 94 | 1005.4 |
| 20260507001115 | 10 | 339 | 1.6 | 8.0 | 0.00 | 0.00 | 0.00 | 93 | 1005.4 |
| 20260507000115 | 11 | 266 | 4.8 | 9.7 | 0.00 | 0.00 | 0.00 | 94 | 1004.4 |
| 20260506234924 | 10 | 288 | 3.2 | 9.7 | 0.00 | 0.00 | 0.00 | 93 | 1004.4 |
| 20260506233923 | 10 | 303 | 1.6 | 4.8 | 0.00 | 0.00 | 0.00 | 91 | 1004.4 |
| 20260506232923 | 10 | 288 | 1.6 | 6.4 | 0.00 | 0.00 | 0.00 | 91 | 1004.4 |
| 20260506231923 | 10 | 279 | 1.6 | 12.9 | 0.00 | 0.00 | 0.00 | 91 | 1004.4 |
| 20260506230924 | 10 | 333 | 1.6 | 6.4 | 0.00 | 0.00 | 0.00 | 91 | 1004.4 |
| 20260506225924 | 10 | 270 | 1.6 | 3.2 | 0.00 | 0.00 | 0.00 | 91 | 1003.3 |
| 20260506224924 | 11 | 250 | 3.2 | 6.4 | 0.00 | 0.00 | 0.00 | 92 | 1003.3 |
| 20260506223923 | 10 | 274 | 1.6 | 6.4 | 0.00 | 0.00 | 0.00 | 91 | 1003.3 |
| 20260506222923 | 10 | 328 | 0.0 | 6.4 | 0.00 | 0.00 | 0.00 | 91 | 1002.3 |
| 20260506221732 | 10 | 270 | 1.6 | 4.8 | 0.00 | 0.00 | 0.00 | 91 | 1003.3 |
| 20260506220732 | 9 | 276 | 1.6 | 4.8 | 0.00 | 0.00 | 0.00 | 90 | 1003.3 |
| 20260506215732 | 9 | 241 | 0.0 | 4.8 | 0.00 | 0.00 | 0.00 | 88 | 1003.3 |
| 20260506214732 | 9 | 227 | 1.6 | 4.8 | 0.00 | 0.00 | 0.00 | 88 | 1003.3 |
| 20260506213732 | 8 | 270 | 1.6 | 8.0 | 0.00 | 0.00 | 0.00 | 87 | 1003.3 |
| 20260506212732 | 8 | 338 | 0.0 | 0.0 | 0.00 | 0.00 | 0.00 | 88 | 1003.3 |
| 20260506211541 | 9 | 338 | 0.0 | 1.6 | 0.00 | 0.00 | 0.00 | 85 | 1003.3 |
| 20260506210349 | 9 | 338 | 0.0 | 0.0 | 0.00 | 0.00 | 0.00 | 85 | 1003.3 |
| 20260506205349 | 10 | 338 | 0.0 | 3.2 | 0.00 | 0.00 | 0.00 | 85 | 1003.3 |
| 20260506204349 | 10 | 338 | 0.0 | 1.6 | 0.00 | 0.00 | 0.00 | 84 | 1003.3 |
| 20260506203350 | 10 | 329 | 1.6 | 4.8 | 0.00 | 0.00 | 0.00 | 83 | 1003.3 |
| 20260506202349 | 11 | 292 | 1.6 | 3.2 | 0.00 | 0.00 | 0.00 | 79 | 1003.3 |
| 20260506201349 | 11 | 171 | 3.2 | 4.8 | 0.00 | 0.00 | 0.00 | 74 | 1003.3 |
| 20260506200158 | 12 | 180 | 4.8 | 8.0 | 0.00 | 0.00 | 0.00 | 71 | 1004.4 |
| 20260506195158 | 12 | 207 | 3.2 | 6.4 | 0.00 | 0.00 | 0.00 | 66 | 1004.4 |
| 20260506194158 | 13 | 270 | 0.0 | 4.8 | 0.00 | 0.00 | 0.00 | 64 | 1003.3 |
| 20260506193158 | 13 | 172 | 3.2 | 9.7 | 0.00 | 0.00 | 0.00 | 65 | 1003.3 |
| 20260506192157 | 13 | 303 | 3.2 | 9.7 | 0.00 | 0.00 | 0.00 | 64 | 1003.3 |
| 20260506191158 | 13 | 268 | 1.6 | 6.4 | 0.00 | 0.00 | 0.00 | 63 | 1004.4 |
| 20260506190158 | 13 | 261 | 1.6 | 6.4 | 0.00 | 0.00 | 0.00 | 60 | 1003.3 |
| 20260506185158 | 13 | 252 | 3.2 | 8.0 | 0.00 | 0.00 | 0.00 | 60 | 1003.3 |
| 20260506184158 | 13 | 299 | 4.8 | 11.3 | 0.00 | 0.00 | 0.00 | 59 | 1003.3 |
| 20260506183158 | 13 | 2 | 3.2 | 8.0 | 0.00 | 0.00 | 0.00 | 57 | 1003.3 |
| 20260506182158 | 13 | 315 | 4.8 | 9.7 | 0.00 | 0.00 | 0.00 | 60 | 1003.3 |
| 20260506181158 | 13 | 346 | 3.2 | 8.0 | 0.00 | 0.00 | 0.00 | 57 | 1002.3 |
| 20260506180158 | 13 | 151 | 1.6 | 4.8 | 0.00 | 0.00 | 0.00 | 52 | 1003.3 |
| 20260506175028 | 14 | 281 | 1.6 | 6.4 | 0.00 | 0.00 | 0.00 | 50 | 1002.3 |
| 20260506174028 | 15 | 252 | 3.2 | 12.9 | 0.00 | 0.00 | 0.00 | 50 | 1002.3 |
| 20260506173028 | 13 | 277 | 4.8 | 14.5 | 0.00 | 0.00 | 0.00 | 55 | 1002.3 |
| 20260506172028 | 12 | 180 | 0.0 | 0.0 | 0.00 | 0.00 | 0.00 | 52 | 1002.3 |
| 20260506171028 | 12 | 180 | 1.6 | 4.8 | 0.00 | 0.00 | 0.00 | 51 | 1002.3 |
| 20260506170028 | 12 | 180 | 0.0 | 0.0 | 0.00 | 0.00 | 0.00 | 51 | 1002.3 |
| 20260506165028 | 12 | 180 | 0.0 | 4.8 | 0.00 | 0.00 | 0.00 | 50 | 1003.3 |
| 20260506164028 | 13 | 176 | 1.6 | 4.8 | 0.00 | 0.00 | 0.00 | 48 | 1003.3 |
| 20260506163028 | 13 | 202 | 0.0 | 3.2 | 0.00 | 0.00 | 0.00 | 47 | 1003.3 |
| 20260506162028 | 13 | 202 | 0.0 | 0.0 | 0.00 | 0.00 | 0.00 | 46 | 1003.3 |
| 20260506161028 | 14 | 202 | 0.0 | 1.6 | 0.00 | 0.00 | 0.00 | 44 | 1003.3 |
| 20260506160028 | 15 | 202 | 0.0 | 1.6 | 0.00 | 0.00 | 0.00 | 44 | 1003.3 |
| 20260506154857 | 15 | 202 | 0.0 | 0.0 | 0.00 | 0.00 | 0.00 | 42 | 1003.3 |
| 20260506153858 | 16 | 202 | 0.0 | 0.0 | 0.00 | 0.00 | 0.00 | 40 | 1003.3 |